This is the latest recevied weather packets stored in our database for station/object K0CPM-2. If no packets are shown the sender has not sent any weather packets the latest 1 day(s).
| Time | Temp. | Humidity | Pressure | Rain* | Wind** | Luminosity | Snow |
|---|---|---|---|---|---|---|---|
| 1836274701 | 26.11° C | 83% | 1014 hPa | 0 mm | 0 m/s | - | - |
| 1778059839 | 23.33° C | 92% | 1008.5 hPa | 0 mm | 0.45 m/s, 101° | - | - |
| 1778058941 | 23.33° C | 91% | 1008.7 hPa | 0 mm | 0.45 m/s, 111° | - | - |
| 1778058037 | 23.33° C | 91% | 1008.8 hPa | 0 mm | 0 m/s | - | - |
| 1778057133 | 23.33° C | 91% | 1008.8 hPa | 0 mm | 0 m/s | - | - |
| 1778056229 | 23.33° C | 90% | 1008.8 hPa | 0 mm | 0 m/s | - | - |
| 1778055331 | 23.33° C | 90% | 1008.6 hPa | 0 mm | 0.45 m/s, 116° | - | - |
| 1778054421 | 23.33° C | 90% | 1008.6 hPa | 0 mm | 0.45 m/s, 105° | - | - |
| 1778053516 | 23.33° C | 90% | 1008.7 hPa | 0 mm | 0.89 m/s, 117° | - | - |
| 1778052613 | 22.78° C | 91% | 1008.7 hPa | 0 mm | 0.89 m/s, 85° | - | - |
| 1778051715 | 22.78° C | 92% | 1008.8 hPa | 0 mm | 0.45 m/s, 84° | - | - |
| 1778050802 | 22.78° C | 92% | 1008.9 hPa | 0 mm | 0.45 m/s, 124° | - | - |
| 1778049959 | 22.78° C | 92% | 1009.1 hPa | 0 mm | 0.89 m/s, 100° | - | - |
| 1778049077 | 22.78° C | 92% | 1009.1 hPa | 0 mm | 0 m/s | - | - |
| 1778048150 | 22.78° C | 92% | 1009.1 hPa | 0 mm | 0 m/s | - | - |
| 1778047246 | 22.78° C | 92% | 1009.1 hPa | 0 mm | 0 m/s | - | - |
| 1778046345 | 22.78° C | 92% | 1009.1 hPa | 0 mm | 0.45 m/s, 123° | - | - |
| 1778045444 | 22.78° C | 92% | 1009.2 hPa | 0 mm | 0.45 m/s, 107° | - | - |
| 1778044539 | 22.78° C | 92% | 1009.4 hPa | 0 mm | 0.89 m/s, 41° | - | - |
| 1778043634 | 22.78° C | 92% | 1009.3 hPa | 0 mm | 0.89 m/s, 132° | - | - |
| 1778042736 | 22.78° C | 91% | 1009.4 hPa | 0 mm | 0.45 m/s, 83° | - | - |
| 1778041832 | 22.78° C | 91% | 1009.5 hPa | 0 mm | 0.45 m/s, 129° | - | - |
| 1778040937 | 22.78° C | 91% | 1009.5 hPa | 0 mm | 0.45 m/s, 124° | - | - |
| 1778040031 | 22.78° C | 91% | 1009.4 hPa | 0 mm | 0.45 m/s, 129° | - | - |
| 1778039130 | 23.33° C | 90% | 1009.6 hPa | 0 mm | 0.45 m/s, 116° | - | - |
* Rain latest hour (hover to see other rain measurements)
** Current wind speed in m/s (hover to see current wind gust speed)